Location: Dürabuch
(48.2640°N, 11.2185°E)
Time: 17:08:48
(UTC+00:00)

Nadezhda 1 Rocket - Pass Details

Date: 09 August 2024
Orbit: 941 x 1004 km, 83.0° (Epoch: 19 September)

Event Time Altitude Azimuth Distance (km) Brightness Sun altitude
Rises 02:46:25 0° 125° (SE) 3,618 7.2 -11.4°
Reaches altitude 10° 02:50:46 10° 95° (E) 2,669 7.0 -10.8°
Maximum altitude 02:52:49 12° 75° (ENE) 2,537 7.3 -10.5°
Drops below altitude 10° 02:54:52 10° 55° (NE) 2,669 7.9 -10.3°
Sets 02:59:12 0° 26° (NNE) 3,618 8.2 -9.7°
